CZ-2D DEB, 43403

Orbit data source: Space-Track

CZ-2D DEB, 43403 is space debris in SSO originally from a launch on Sat, 29 Sep 2012 UTC launched from the Jiuquan Satellite Launch Center, China (JSC). Debris objects in space refer to the collection of defunct objects orbiting the Earth. Examples of debris include non-operational satellites, rocket bodies, and fragments generated from explosions, collisions, or faulty payload assembly.

Loading next visibility...
CZ-2D DEB details
Identifier
43403, 2012-052C
Orbit
SSO
Last TLE update10 hours ago
Origin
Flag of CNCNSA (CN / PRC)
ManufacturerSAST
MissionSpacecraft
Bus & MotorUnknown
MassUnknown
Launch date (UTC)
2012-09-29 (12 years ago)
Launch vehicleUnknown
Launch site
Jiuquan Satellite Launch Center, China (JSC)
Object type
Payload
Rocket body
Debris
Shape & HBRUnknown
Radar Cross SectionSmall (<0.1 m²)

Expand to show TLE details & history

TLE from 10 hours ago
0 CZ-2D DEB
1 43403U 12052C   24337.06696331  .00012768  00000-0  33500-2 0  9994
2 43403  98.0106  91.6714 0201901 205.8629 153.2359 14.37848336633921
Epoch: 2024-12-02T01:36Z
Definitive object data (Epoch: 2024-12-02T01:36:25.629Z)
Latitude-0.00007°
Longitude-3.83153°
Altitude897.96 km
Speed7.336 km/s
True Right ascension06h 06m 41s
True Declination0° 00' 00"
Sunlit
Object was in full shadow at TLE epoch
Visualization TLE readout
Latitude-16.52455°
Longitude-1.06469°
Altitude879.565 km
Speed7.356 km/s
Apparent Right ascension03h 18m 47s
Apparent Declination-50° 58' 55"
Sunlit
Object is in full shadow
Visualization observer readout
Local Sidereal Time09:19:39
Azimuth226.645° WSW
Elevation-30.023°
Doppler factor1
Orbital elements
Apogee altitude906.892 km
Perigee altitude618.542 km
Semi-major axis7,140.854 km
Eccentricity0.0201901
Inclination98.0106°
RAAN91.6714°
Arg. of periapsis205.8629°
True anomaly154.25473°
Mean anomaly153.2359°
Eccentric anomaly153.74759°
Mean motion3.59681 °/min
BSTAR0.00335
Orbital period100.09 mins
Loading maneuver chart data...
Loading historical data...
Loading historical data...
Loading historical data...
Loading historical data...
Loading historical data...
Loading historical data...
Loading historical data...
Other satellites on launch #52 in the year 2012 (2012-09-29 UTC)

CZ-2D DEB Visibility forecast

Observer location: undefined°, undefined

Span
Click to sort rows by Start time (UTC) header in descending order
Start Az.
Max El. time (UTC)
Max El. Az.
Max El.
End time (UTC)
End Az.
9 mins2024-12-02 20:33:54.537Z17.154° NNE2024-12-02 20:38:54.537Z140.204° SSE42.613°2024-12-02 20:42:54.537Z186.08° SSW
9 mins2024-12-03 07:47:54.537Z163.623° S2024-12-03 07:51:54.537Z66.352° ENE44.938°2024-12-03 07:56:54.537Z348.419° N
|